#timestamp,LO_Frequency,Hit,StdDev 
1532768415.2,286046995.4,Y
1532768435.9,286046997.7,P
1532768455.7,286046997.9,N
1532768475.6,286046997.6,P
1532768495.4,286046995.4,Y
1532768515.2,286046996.9,P
1532768535.1,286046998.3,N
1532768536.0,286046998.3,N
1532768555.8,286046998.7,N
1532768575.7,286046998.1,Y
1532768595.5,286046999.8,P
1532768615.3,286047001.9,N
1532768635.2,286047003.9,N
1532768655.0,286047002.7,N
1532768655.9,286047002.7,N
1532768675.8,286046999.9,N
1532768695.6,286046998.2,N
1532768715.4,286046998.3,N
1532768765.3,286046996.8,E
1532768775.2,286046998.8,N
1532768795.1,286047002.3,P
1532768796.0,286047002.3,N
1532768815.8,286047001.0,N
1532768835.6,286047000.1,N
1532768855.5,286047001.1,N
1532768875.3,286047000.1,N
1532768895.1,286047002.1,N
1532768915.9,286047002.1,N
1532768935.7,286047002.5,N
1532768955.6,286047000.0,N
1532768975.4,286047001.0,N
1532768995.2,286046998.5,N
1532769015.1,286046998.7,N
1532769016.0,286046998.7,N
1532769035.8,286046996.5,N
1532769055.7,286047000.7,N
1532769075.5,286047000.7,N
1532769095.3,286047001.0,N
1532769115.2,286047000.8,N
1532769135.0,286046999.8,N
1532769135.9,286046999.8,N
1532769155.8,286046999.1,N
1532769175.6,286046997.0,N
1532769195.4,286046996.5,N
1532769215.3,286046999.3,N
1532769235.1,286046999.1,N
1532769255.8,286046999.0,N
1532769275.7,286046999.6,N
1532769295.5,286046998.1,N
1532769315.3,286047001.1,N
1532769335.2,286047001.0,N
1532769355.0,286046998.1,N
1532769355.9,286046998.1,N
1532769375.8,286047000.4,N
1532769395.6,286047000.7,N
1532769415.4,286047001.0,N
1532769435.3,286047000.2,N
1532769455.1,286047002.2,N
1532769475.9,286047002.6,N
1532769495.7,286047005.7,Y
1532769515.5,286047007.1,P
1532769535.4,286047006.1,N
1532769555.2,286047007.0,N
1532769575.0,286047004.6,N
1532769575.9,286047004.6,N
1532769595.8,286047007.6,N
1532769615.6,286047006.5,N
1532769635.5,286047007.1,N
1532769655.3,286047010.0,Y
1532769675.1,286047004.7,P
1532769695.9,286047005.1,P
1532769715.7,286047003.7,P
1532769735.5,286047004.2,Y
1532769755.4,286046999.3,P
1532769775.2,286046999.1,N
1532769795.1,286046997.3,N
1532769796.0,286046997.3,N
1532769815.8,286046996.7,N
1532769835.6,286046996.7,N
1532769855.5,286046997.9,N
1532769875.3,286046999.0,N
1532769895.2,286046999.2,N
1532769915.9,286046998.0,N
1532769935.7,286046993.3,Y
1532769955.6,286046994.9,P
1532769975.4,286046997.7,N
1532769995.2,286046996.7,N
1532770015.1,286046996.6,N
1532770016.0,286046996.6,N
1532770035.8,286046998.4,N
1532770055.7,286046999.4,N
1532770075.5,286046999.4,N
1532770095.3,286046996.7,N
1532770115.2,286046998.9,N
1532770135.0,286046998.7,N
1532770135.9,286046998.7,N
1532770155.7,286046996.6,N
1532770175.6,286046995.3,Y
1532770195.4,286047001.2,P
1532770215.3,286046998.1,N
1532770235.1,286047002.7,N
1532770255.8,286047001.0,N
1532770275.7,286047000.6,N
1532770295.5,286046999.1,N
1532770315.3,286047000.3,N
1532770335.2,286047001.2,N
1532770355.0,286047000.8,N
1532770355.9,286047000.8,N
1532770375.8,286047000.8,N
1532770395.6,286047001.2,N
1532770415.4,286047001.2,N
1532770435.3,286046999.6,N
1532770455.1,286046998.2,N
1532770475.9,286047001.1,N
1532770495.7,286047001.6,N
1532770515.5,286047002.7,N
1532770535.4,286047004.0,N
1532770555.2,286047001.8,N
1532770575.0,286047002.6,N
1532770575.9,286047002.6,N
1532770595.8,286047003.5,N
1532770615.6,286047004.5,N
1532770635.5,286047007.5,Y
1532770655.3,286047004.6,P
1532770675.1,286047004.8,N
1532770695.9,286047003.1,N
1532770715.7,286047006.0,Y
1532770735.6,286047000.0,P
1532770755.4,286047000.3,N
1532770775.2,286046998.4,N
1532770795.1,286046999.4,N
1532770796.0,286046999.4,N
1532770815.8,286046998.9,N
1532770835.6,286046998.8,N
1532770855.5,286046999.2,N
1532770875.3,286047000.6,N
1532770895.2,286047001.2,N
1532770915.9,286046998.2,N
1532770935.7,286046998.4,N
1532770955.6,286047011.9,Y
1532770975.4,286046999.4,P
1532770995.2,286046999.4,P
1532771015.1,286046999.3,P
1532771016.0,286046999.3,Y
1532771035.8,286047002.6,P
1532771055.7,286047004.4,N
1532771075.5,286047001.3,N
1532771095.3,286047001.7,N
1532771115.2,286047003.8,N
1532771135.0,286047005.7,Y
1532771135.9,286047005.7,P
1532771155.8,286047001.6,N
1532771175.6,286047001.7,N
1532771195.4,286047001.3,N
1532771215.3,286047004.0,N
1532771235.1,286047004.6,N
1532771255.8,286047005.8,Y
1532771275.7,286047000.5,P
1532771295.5,286046999.1,N
1532771315.4,286046999.6,N
1532771335.2,286046999.0,N
1532771355.0,286046999.1,N
1532771355.9,286046999.1,N
1532771375.8,286046999.6,N
1532771395.6,286046998.4,N
1532771415.4,286047001.2,N
1532771435.3,286046998.7,N
1532771455.1,286046999.4,N
1532771475.9,286046996.6,N
1532771495.7,286046999.4,N
1532771515.5,286046996.5,N
1532771535.4,286046995.3,Y
1532771555.2,286046997.7,P
1532771575.0,286046998.1,N
1532771575.9,286046998.1,N
1532771595.8,286047000.9,N
1532771615.6,286046998.1,N
1532771635.5,286047002.5,N
1532771655.3,286047000.5,N
1532771675.1,286047002.5,N
1532771695.9,286047002.3,N
1532771715.7,286047002.4,N
1532771735.5,286047002.7,N
1532771755.4,286047000.0,N
1532771775.2,286047001.2,N
1532771795.1,286046999.5,N
1532771796.0,286046999.5,N
1532771815.8,286046998.6,N
1532771835.6,286046998.9,N
1532771855.5,286046999.4,N
1532771875.3,286046998.4,N
1532771895.1,286046999.1,N
1532771915.9,286046999.5,N
1532771935.7,286046998.6,N
1532771955.6,286046998.6,N
1532771975.4,286046998.2,N
1532771995.2,286047000.8,N
